Theta_e
282 282 282 282 282 282 281 281 281 283 284 284 283 283 283 282 282 283 284 284 285 285 285 285 285 285 285 286 285 285 285 284 284 283 282 282 283 283 283 282 281 279 277 274 276 276 276 277 278 277 279 278 278 278 280 280 278 279 279 279 278 279 284
283 283 282 282 282 282 282 280 281 281 282 283 283 283 284 283 282 283 283 284 284 285 285 285 285 285 285 285 285 285 285 284 283 283 282 282 281 282 282 282 281 280 278 273 274 274 275 275 277 276 278 278 277 277 278 277 277 278 278 278 277 277 278
283 283 283 283 283 283 282 282 281 281 281 281 281 282 283 283 283 283 283 283 283 284 285 284 284 284 285 285 284 284 285 285 283 282 282 282 282 281 281 281 282 281 278 275 272 274 274 274 276 276 276 278 278 278 278 276 276 277 277 278 276 276 276
283 283 283 282 282 281 282 281 281 281 281 281 281 282 283 283 282 283 283 283 282 283 284 284 284 284 284 285 284 284 284 284 284 283 282 282 282 282 282 281 281 281 280 276 273 273 274 275 275 275 276 277 278 277 277 277 277 277 276 276 277 276 276
282 282 281 280 281 281 281 282 282 281 281 281 282 283 284 283 283 283 283 283 283 283 283 283 283 284 284 284 283 284 283 284 283 283 282 281 282 282 282 282 281 280 280 277 274 274 274 275 275 276 276 277 276 276 276 277 276 276 275 275 276 276 277
279 279 279 280 280 280 281 281 282 282 282 282 281 282 283 283 284 283 283 283 283 283 283 283 283 284 284 283 283 283 283 283 283 282 282 281 281 281 281 281 280 280 280 278 276 274 273 274 274 274 275 276 276 275 274 274 275 276 275 274 274 275 276
278 278 278 278 278 278 279 280 281 281 282 282 281 280 280 281 282 283 283 283 283 282 282 283 284 284 284 283 283 283 283 282 282 281 281 281 281 281 280 280 280 280 279 278 276 275 274 273 274 274 273 275 276 276 275 274 273 272 274 274 274 274 275
277 277 278 278 278 279 279 279 280 281 281 282 282 282 282 281 281 282 283 283 283 283 283 283 283 283 283 283 283 283 283 283 281 281 280 281 281 280 280 279 279 279 279 278 277 275 273 273 273 273 274 275 275 274 274 274 273 271 272 272 274 274 274
276 275 276 277 278 279 279 280 280 281 282 282 283 283 283 283 282 281 281 282 283 283 283 283 283 283 283 283 283 284 284 283 283 281 280 280 280 279 279 278 278 278 278 278 277 275 274 273 273 273 272 272 272 272 272 274 274 273 274 273 273 274 275
274 275 275 277 278 279 279 280 281 283 284 285 284 283 283 282 281 281 281 280 281 282 283 283 283 283 284 284 284 284 284 284 284 283 282 281 280 279 278 278 277 277 277 277 277 275 274 271 271 272 272 272 273 274 275 274 274 272 273 273 272 273 274
273 274 275 277 278 279 280 281 282 284 285 286 286 284 283 282 282 281 281 281 280 280 280 281 282 283 283 284 284 283 284 284 284 284 283 283 282 281 279 278 277 277 277 276 276 277 275 273 272 272 273 273 273 274 274 273 274 273 273 271 270 268 271
273 274 275 276 277 278 280 282 284 285 285 286 286 286 284 283 282 283 282 282 282 282 282 282 282 283 283 283 283 283 283 283 284 284 283 283 283 282 282 282 279 277 276 276 276 276 276 275 273 273 273 273 274 273 273 274 274 273 272 271 270 270 270
273 274 275 277 278 279 281 282 284 285 286 286 287 287 286 284 283 283 283 283 283 283 283 283 282 282 283 283 284 283 283 282 282 283 284 283 283 283 282 282 282 282 279 278 277 276 276 276 275 273 273 274 274 275 273 274 273 273 273 273 271 271 271
273 274 275 277 278 280 281 282 284 285 286 286 287 287 286 284 284 283 283 283 283 283 283 283 283 282 282 282 282 282 282 281 281 280 281 282 282 281 281 282 282 282 282 280 278 277 276 278 278 275 275 275 277 275 273 274 273 274 272 272 272 273 273
273 274 276 278 279 281 281 282 284 285 285 286 286 286 285 284 283 282 282 282 283 283 284 284 283 283 282 282 281 282 282 281 281 281 280 280 280 280 280 280 280 280 280 280 279 278 278 278 279 277 277 276 277 276 276 276 275 275 274 273 271 270 271
274 275 277 280 282 281 281 281 284 285 286 286 286 286 284 282 281 281 281 281 282 283 284 284 284 283 283 283 282 283 284 283 282 280 279 279 279 279 279 279 281 282 282 280 279 279 278 278 278 279 277 277 277 277 275 273 272 272 270 270 269 268 268
273 275 277 279 281 281 280 279 281 284 285 285 286 285 283 283 282 282 281 282 283 283 283 283 283 284 283 283 283 283 284 284 283 280 279 279 279 279 278 278 280 282 283 283 282 281 281 281 281 281 281 281 280 276 274 273 271 270 270 269 267 266 266
273 275 278 279 280 280 279 279 281 283 284 285 286 285 283 283 282 282 282 282 283 283 283 283 284 284 283 282 282 284 284 285 283 280 279 279 278 277 277 277 278 279 281 283 282 282 281 281 281 281 281 281 280 279 277 273 271 270 270 269 269 268 266
273 275 278 280 281 282 282 282 283 284 285 286 286 285 284 283 282 281 282 282 282 283 283 283 284 284 284 283 283 285 285 285 283 281 279 279 278 276 276 276 277 278 278 278 278 278 279 279 280 280 279 279 279 279 277 275 273 270 270 268 267 266 263
273 275 277 280 281 282 282 282 282 283 285 285 285 285 284 283 282 281 281 281 282 281 282 282 282 283 285 285 285 285 285 285 285 281 280 279 277 276 275 277 277 278 278 277 277 277 277 276 277 277 277 277 275 273 272 272 272 271 271 269 267 266 266
276 278 279 281 282 281 281 282 282 282 283 283 283 284 283 281 280 280 280 280 280 280 279 279 280 281 283 284 284 284 284 285 285 283 279 278 277 277 278 278 276 277 279 276 272 271 271 272 272 272 271 270 269 269 268 269 270 271 271 269 266 265 265
279 279 280 280 280 279 279 279 281 278 281 282 282 282 282 280 280 281 280 279 278 277 277 277 278 278 280 283 284 283 283 284 284 284 278 278 280 280 280 277 277 277 274 271 270 270 269 269 269 268 268 267 266 265 265 265 265 264 264 265 267 267 265
277 277 276 276 276 276 277 277 276 281 277 281 281 281 281 282 281 282 280 278 276 276 276 276 277 278 281 282 283 283 283 283 283 282 278 281 281 280 279 278 276 273 271 270 269 269 268 268 268 266 265 265 262 262 262 262 261 261 261 261 261 261 262
276 276 275 275 275 276 277 277 276 278 280 278 280 281 281 281 282 282 279 277 276 275 275 274 274 277 280 281 282 282 282 282 282 278 280 281 280 279 278 274 272 271 271 269 269 268 267 267 267 266 265 263 262 261 260 260 260 259 258 258 258 259 259
276 276 275 275 274 275 278 278 277 274 276 280 280 280 281 281 282 282 281 276 275 275 275 276 278 279 280 281 281 281 281 281 281 280 280 280 279 278 273 272 271 271 270 269 268 268 267 267 266 266 264 262 260 260 260 259 258 258 257 257 257 258 257
275 276 275 275 275 276 277 277 277 275 271 276 278 279 280 281 282 281 279 278 276 277 278 279 279 279 280 280 280 279 278 277 278 279 279 279 277 273 273 272 271 270 270 269 268 267 266 264 262 260 260 260 260 260 259 259 258 257 257 256 256 257 258
275 275 274 274 274 274 274 274 275 275 272 271 274 277 280 280 279 279 279 277 277 277 277 278 278 278 279 279 279 279 279 279 279 278 276 273 272 272 272 272 271 271 270 268 267 265 263 261 260 260 260 260 260 259 258 259 258 258 257 256 255 255 256
274 274 274 274 274 274 274 273 273 274 273 274 276 278 278 277 276 275 274 275 275 275 276 277 278 278 277 277 276 274 273 273 272 272 272 272 271 271 271 272 273 271 268 267 265 262 261 260 260 260 260 259 259 259 259 259 259 258 258 257 255 255 257
276 276 276 275 274 273 273 273 273 275 279 278 279 278 276 275 275 275 274 276 277 275 275 274 274 273 273 272 271 270 270 270 269 269 270 269 270 270 270 269 268 266 264 263 263 261 261 261 261 260 260 260 259 259 259 258 258 257 258 254 253 254 255
277 278 278 277 276 275 274 273 274 278 280 280 280 280 278 278 278 278 277 278 277 275 273 272 272 271 271 270 269 268 267 267 268 267 267 268 269 267 267 266 265 265 264 264 263 262 261 261 260 260 260 260 259 258 258 258 261 255 256 255 255 255 253
280 280 280 279 277 277 279 279 279 280 280 280 280 280 280 279 279 279 279 278 274 272 271 271 270 270 269 269 268 267 267 267 267 267 266 265 265 266 266 265 264 264 263 263 262 262 262 261 261 260 260 260 259 259 258 258 257 256 255 254 254 252 253
280 280 280 281 280 278 276 279 279 279 280 280 281 280 280 280 280 280 279 278 276 271 270 270 269 268 268 268 267 267 267 267 266 266 265 265 264 263 263 264 263 263 263 262 262 261 261 261 261 260 260 259 258 258 258 258 256 255 254 252 252 252 253
279 279 280 281 281 281 280 279 279 279 280 280 281 281 280 280 280 279 278 276 272 270 269 269 268 268 267 267 267 267 266 265 265 265 265 264 263 262 262 262 263 264 262 262 262 261 260 260 260 259 259 258 258 258 257 256 255 253 253 252 253 254 254
278 278 279 280 281 281 281 281 280 280 280 281 281 281 281 280 278 279 277 274 270 270 268 268 267 267 267 267 266 266 265 265 265 264 264 263 262 261 261 261 262 262 261 261 262 260 259 259 259 259 259 258 256 255 256 255 254 253 254 252 253 253 251
273 276 278 278 279 281 281 281 281 281 281 281 281 281 280 279 274 272 271 271 270 270 268 267 267 267 267 267 266 265 265 265 264 263 262 261 260 260 260 260 260 260 260 260 259 259 259 258 258 258 258 258 257 256 256 255 254 253 254 253 251 251 252
272 274 276 279 279 279 281 281 281 281 281 281 281 280 277 272 271 270 270 270 269 269 268 268 267 267 267 266 266 266 265 265 264 263 262 261 260 260 259 259 259 259 258 258 259 258 259 258 257 258 257 256 257 257 258 256 255 254 253 253 251 251 251
Wind_Speed
12 12 12 10 8 8 7 6 6 6 7 7 8 8 8 8 8 9 8 7 8 8 8 8 9 10 10 8 8 8 7 7 8 8 7 8 9 11 10 10 10 11 7 2 5 6 9 8 10 10 12 11 10 9 8 8 8 9 8 7 7 7 13
10 9 8 8 8 7 6 6 6 7 7 8 8 8 7 8 8 9 8 7 8 8 8 8 10 10 10 8 9 9 9 8 7 8 8 8 8 10 10 11 10 10 8 6 3 5 3 6 10 10 11 14 12 11 8 10 8 7 8 7 6 7 7
9 10 11 11 10 10 9 9 8 7 6 7 8 8 8 9 9 10 10 9 8 8 7 8 9 10 9 7 9 10 9 9 8 7 9 10 8 8 9 9 10 9 7 7 6 5 7 8 9 10 10 11 10 11 10 10 9 8 7 6 6 6 6
11 11 10 9 9 8 7 8 7 7 6 7 7 7 8 8 9 10 11 10 9 7 7 8 8 9 9 8 9 10 9 9 9 9 8 10 9 9 10 7 6 8 5 4 7 6 8 8 8 6 4 8 8 10 9 9 8 7 7 6 6 7 6
8 7 7 7 8 8 9 9 9 8 7 6 6 8 8 8 8 9 9 9 9 9 7 7 8 9 8 8 9 10 9 9 11 9 9 9 8 8 9 7 6 6 5 5 8 6 4 5 6 6 7 9 11 8 6 7 8 8 9 7 5 5 5
8 6 6 6 6 7 8 9 9 9 9 9 7 7 8 8 8 8 9 9 9 8 8 9 9 8 7 8 10 10 9 10 11 10 9 10 9 8 7 7 6 6 6 6 6 7 6 5 8 6 6 9 10 10 10 6 6 7 7 7 6 6 6
9 8 7 7 7 7 8 9 8 9 10 10 8 7 7 7 7 7 7 7 8 8 8 9 10 10 8 8 9 10 9 8 9 9 10 10 10 9 8 8 7 7 8 7 6 6 7 8 6 8 9 8 8 9 10 12 10 8 6 6 8 8 7
12 11 9 9 8 9 10 9 9 10 11 10 9 8 8 7 7 7 7 7 8 9 9 10 9 9 8 7 7 8 8 8 8 7 8 8 8 8 9 8 7 7 7 7 7 8 8 6 8 6 2 6 8 9 7 8 10 11 10 10 9 9 8
11 12 13 12 11 11 11 10 10 9 10 10 10 10 9 9 9 9 8 8 8 7 7 8 10 10 8 7 8 10 9 9 9 8 8 8 7 8 8 8 7 7 8 8 8 7 7 8 9 9 10 10 12 14 14 9 8 8 10 8 7 7 7
12 11 11 12 11 11 10 10 9 11 18 17 11 9 9 8 9 9 8 9 8 7 8 8 7 8 12 12 11 10 11 11 12 13 11 9 9 9 8 8 8 8 9 9 10 10 9 9 11 11 12 12 12 9 6 9 11 8 7 7 7 6 6
12 11 11 11 10 11 11 11 10 18 20 22 24 14 9 9 9 8 8 8 9 9 8 8 9 9 12 14 14 12 12 11 13 14 15 14 14 13 12 10 10 10 10 10 11 10 9 10 12 12 11 11 10 10 12 12 11 7 7 9 10 9 3
11 11 11 10 11 12 12 11 13 18 19 22 22 18 11 9 8 8 9 9 10 9 9 9 8 7 6 8 10 9 10 13 15 15 16 16 16 16 18 18 14 12 10 11 11 11 11 11 12 11 10 10 10 11 10 9 9 10 10 10 10 8 8
11 12 11 11 11 12 11 10 15 18 20 20 21 20 17 9 9 9 9 9 10 11 11 9 9 9 9 8 13 12 11 12 12 16 18 17 17 18 19 19 21 21 15 12 12 12 12 12 10 10 10 11 10 9 10 9 8 9 9 8 8 7 5
13 12 12 12 12 11 10 10 14 18 20 20 21 21 18 8 9 9 10 10 11 10 11 11 9 9 10 9 11 11 13 13 13 12 12 13 13 12 16 20 22 21 23 17 13 13 13 12 8 10 9 8 8 11 12 11 11 9 9 10 10 7 6
13 12 13 13 13 11 10 9 15 17 18 18 19 18 15 7 7 7 8 9 10 10 10 10 10 10 10 10 11 11 14 13 13 12 11 12 13 13 11 12 13 14 13 12 11 11 12 10 8 8 8 10 10 11 10 9 10 10 9 5 6 6 4
11 12 13 11 8 6 7 8 14 16 17 17 16 17 9 6 7 8 8 9 9 9 9 10 11 11 12 12 12 16 22 17 12 12 13 13 13 12 12 12 14 15 15 13 11 10 9 6 7 8 8 11 10 8 6 7 8 8 8 8 7 7 3
11 11 11 12 10 6 6 7 10 14 16 17 18 14 8 7 7 8 9 9 9 10 10 10 11 11 11 12 12 15 19 20 19 12 14 14 14 12 12 11 11 17 21 19 16 14 13 12 14 15 16 18 15 10 10 9 8 8 8 9 8 5 4
11 11 10 10 9 7 7 7 9 13 14 17 18 15 9 8 8 9 10 10 11 10 10 11 16 14 11 11 11 17 20 23 20 14 15 15 15 16 13 11 9 9 13 22 18 17 16 16 16 17 18 19 18 18 14 12 11 9 8 8 8 8 5
10 11 11 10 9 11 11 9 9 13 15 16 17 14 8 7 7 9 9 9 9 10 10 10 13 19 16 13 14 21 21 25 21 15 15 15 13 14 15 12 12 12 11 11 11 11 12 11 15 13 11 12 20 18 12 8 9 8 8 8 6 5 4
10 11 11 10 9 8 8 8 8 7 10 9 10 10 6 4 5 6 7 7 8 8 9 10 10 13 20 22 22 20 23 25 27 16 14 13 13 13 15 10 11 13 12 12 11 10 9 8 7 8 10 10 9 7 5 7 8 7 7 7 6 5 5
9 10 10 8 7 6 6 5 3 3 7 9 10 12 11 5 5 5 6 6 6 7 7 7 8 8 14 20 20 20 22 24 26 22 12 13 12 12 11 12 11 13 15 9 8 9 8 8 7 7 8 8 8 7 6 6 5 5 5 6 6 5 5
7 8 8 7 7 6 6 4 4 3 5 8 10 11 13 7 6 6 5 6 5 5 5 6 6 5 8 12 16 18 19 22 23 22 11 11 13 13 18 13 10 9 9 9 9 8 8 8 9 8 7 7 7 6 6 6 5 4 4 3 3 6 7
6 6 7 7 6 7 7 6 5 6 4 6 9 11 11 11 8 10 6 5 5 6 6 5 5 5 10 13 16 16 18 18 20 17 10 17 17 17 20 14 8 9 10 10 9 10 9 8 8 8 7 7 9 6 6 5 5 5 5 5 5 6 3
7 5 5 6 6 6 7 5 4 5 5 4 8 11 10 10 10 10 4 5 5 3 4 4 4 5 11 14 15 16 15 16 12 10 17 19 18 20 18 10 9 9 10 10 9 9 9 8 6 7 7 6 4 5 7 7 6 5 5 5 4 4 3
8 6 6 5 5 6 5 4 4 4 4 6 7 10 10 8 11 7 8 4 2 4 3 5 7 9 11 12 12 12 13 10 13 21 19 19 20 17 8 10 9 10 10 10 10 9 8 7 5 5 6 7 6 7 6 7 7 6 6 5 4 2 0
9 7 7 6 5 4 4 6 6 6 4 4 5 6 10 12 3 9 8 7 6 7 9 9 9 10 10 9 7 4 3 6 10 18 20 19 16 9 9 8 9 9 10 9 8 8 8 7 7 9 8 8 7 7 6 6 5 4 2 2 1 1 0
9 8 8 7 5 5 5 5 5 5 4 3 4 5 3 6 9 10 10 6 5 6 5 7 6 4 6 5 7 10 12 14 14 12 10 10 9 9 8 9 9 10 10 9 9 8 7 7 7 7 7 6 6 6 4 4 5 5 4 3 1 3 2
9 9 9 8 7 5 5 6 5 4 5 4 4 3 5 6 6 5 4 5 4 4 4 4 6 6 5 6 8 8 8 8 8 10 10 9 8 8 8 9 11 10 8 8 8 9 9 7 7 6 6 5 5 5 4 4 4 5 5 3 3 3 1
9 9 9 8 8 6 5 4 5 3 6 4 3 3 5 6 5 5 4 6 9 7 7 7 7 8 8 8 9 9 8 8 8 8 8 10 9 8 8 8 8 9 8 9 10 10 9 8 6 6 5 6 6 5 4 3 4 2 6 3 2 4 3
10 11 9 6 6 3 4 5 5 10 12 7 4 9 8 11 11 9 8 10 12 7 7 7 7 7 8 8 9 9 9 8 9 9 8 7 8 8 7 7 7 8 9 8 9 9 9 8 8 7 6 6 6 4 3 4 5 3 4 4 3 4 1
19 20 20 10 5 6 8 10 11 9 7 6 2 15 14 14 14 14 15 15 10 7 6 7 8 7 7 7 8 9 8 8 9 9 8 7 6 6 7 7 7 7 7 8 8 7 7 8 8 8 7 7 6 7 5 3 2 4 3 4 5 4 1
19 20 20 20 14 5 2 4 5 6 4 3 10 15 14 15 15 15 15 14 13 9 6 6 7 7 7 7 8 8 8 8 8 8 8 8 8 6 5 7 7 6 8 8 8 8 7 7 7 8 7 6 7 6 6 5 5 4 4 2 2 2 1
20 20 21 20 19 11 7 5 4 5 2 1 15 14 15 15 16 16 17 15 8 7 7 6 7 7 7 7 8 7 7 7 7 8 7 7 8 7 5 5 6 7 7 7 8 8 7 7 7 7 6 6 6 7 6 6 6 4 3 4 3 1 2
18 19 19 18 20 14 11 9 6 4 3 7 14 14 16 15 11 14 12 10 7 7 7 7 7 7 7 7 7 7 8 8 7 7 7 7 7 6 6 6 6 7 7 7 7 7 7 7 7 7 8 7 6 4 6 6 6 5 6 4 5 4 2
10 13 17 14 12 16 14 11 9 6 3 13 14 16 18 15 8 8 7 7 5 6 7 7 7 7 7 7 8 7 8 8 8 7 7 8 7 7 6 6 6 6 6 7 7 7 7 7 8 7 7 9 8 7 6 7 6 5 5 6 4 3 2
8 8 10 15 16 18 16 14 9 6 9 18 19 17 14 8 6 7 6 6 5 6 5 6 6 7 7 6 7 7 6 7 7 7 7 7 8 8 7 6 6 6 6 6 7 7 7 7 6 7 7 6 7 7 8 7 6 6 4 4 4 3 3
Wind_Direction
262 260 258 253 249 245 237 232 229 222 219 219 224 225 226 224 203 205 214 222 233 229 229 223 220 219 219 210 206 209 203 205 204 200 201 204 211 215 211 209 211 219 225 195 210 180 185 177 164 182 186 177 176 178 181 168 178 180 189 193 194 203 219
260 257 252 252 247 245 238 231 230 224 213 218 223 230 228 232 214 209 214 211 225 229 226 225 225 225 221 209 210 211 212 199 198 199 203 204 205 212 209 204 209 220 203 196 159 176 156 172 183 183 185 183 178 182 170 177 178 182 183 188 185 195 211
261 252 252 251 247 243 243 239 239 231 218 218 217 222 230 228 216 211 212 210 216 223 224 228 228 228 223 211 208 213 213 204 197 197 202 206 206 210 208 200 206 205 200 180 190 174 168 179 188 189 185 188 186 180 172 173 176 177 184 188 186 192 202
268 260 252 249 248 247 249 255 248 241 226 223 219 216 224 232 228 218 213 207 204 208 216 226 230 231 225 215 213 213 210 208 202 198 203 210 210 211 215 204 192 207 180 166 160 193 184 183 172 187 173 180 176 174 173 175 168 170 179 179 188 195 198
285 271 258 247 247 244 241 241 243 245 242 230 221 220 222 223 225 229 225 214 205 194 203 225 234 234 225 215 218 218 212 205 205 202 201 207 210 213 215 207 188 191 155 162 177 166 177 178 184 174 167 171 160 170 157 165 160 173 180 182 186 190 205
299 291 279 266 257 252 249 246 243 241 244 241 225 217 215 215 216 222 230 224 212 203 196 216 234 239 228 218 217 221 215 208 203 200 199 202 205 207 208 202 193 185 171 173 170 164 161 189 176 167 177 175 169 166 170 162 151 174 180 173 182 204 208
309 303 294 287 279 269 260 256 247 244 242 238 229 213 204 206 212 218 219 225 222 209 205 210 217 219 219 220 218 220 215 207 201 197 200 201 202 200 198 198 197 189 189 189 169 173 180 174 190 179 173 177 175 179 180 175 171 187 180 176 188 206 212
316 308 299 292 290 286 281 270 262 250 243 238 232 228 227 217 212 216 222 230 232 228 213 205 209 209 204 206 214 216 215 200 197 192 201 202 195 194 193 199 194 187 190 194 186 182 178 182 174 178 174 156 162 178 197 197 184 180 178 191 199 201 193
299 299 297 294 289 287 282 274 261 251 240 235 231 226 224 223 221 216 219 224 227 227 231 220 204 199 192 191 209 215 214 205 196 188 198 201 187 190 191 193 186 187 191 197 191 188 178 175 185 189 175 177 188 194 192 172 171 193 192 177 178 200 201
288 285 284 283 280 277 273 265 258 244 239 232 226 221 222 219 221 222 224 229 232 224 213 213 214 208 196 195 211 220 219 217 209 203 202 194 183 186 189 191 186 190 193 195 197 196 184 184 195 191 191 189 196 185 156 170 186 182 167 158 196 212 212
290 286 282 276 272 271 270 263 251 245 239 239 236 229 218 220 224 224 226 228 226 224 214 210 209 209 206 205 207 214 224 227 219 214 212 206 196 196 187 187 192 197 194 196 204 201 189 196 200 200 191 195 183 182 185 184 184 169 162 178 181 203 214
284 281 276 272 265 262 262 260 251 243 241 241 239 231 223 222 225 224 225 226 227 226 221 213 207 211 211 205 197 198 219 231 231 223 217 211 205 203 205 201 193 194 196 200 204 204 203 199 205 197 189 189 181 184 184 184 180 181 183 180 188 193 191
284 280 273 263 258 257 253 248 252 249 243 240 237 233 232 225 220 223 224 223 223 224 222 218 211 207 204 206 208 211 214 214 221 226 221 215 212 205 202 207 207 203 198 194 202 206 209 206 197 190 200 194 184 175 179 182 186 189 190 188 186 188 158
282 280 275 267 263 261 257 249 249 247 244 240 239 240 241 227 220 217 219 221 219 219 219 217 215 213 212 207 205 206 209 208 211 214 217 214 210 208 208 207 205 205 206 199 198 201 209 209 184 194 193 180 171 176 186 186 192 184 184 191 194 170 139
286 283 277 269 260 254 251 248 248 248 249 252 253 252 248 235 231 225 225 224 223 221 220 214 214 212 211 204 205 209 207 207 207 207 207 206 205 207 208 209 208 205 201 200 200 206 210 201 185 186 168 174 183 191 190 190 187 181 180 134 74 63 75
278 280 285 286 275 255 253 255 251 245 245 245 248 252 249 231 219 223 224 225 222 223 220 220 216 217 216 212 211 211 210 205 201 199 204 205 206 203 203 207 209 202 198 199 197 200 198 180 173 163 163 175 181 174 125 94 86 89 114 135 148 159 149
280 281 285 287 287 271 258 253 245 241 245 250 252 252 243 237 232 225 221 222 222 220 223 222 220 218 219 216 216 211 208 204 200 199 203 205 205 202 197 204 204 205 202 197 193 184 178 170 174 176 175 180 167 149 140 124 127 156 153 148 163 174 153
284 284 283 279 277 269 263 262 246 242 241 247 251 249 241 230 231 229 225 224 219 219 219 222 222 222 218 217 212 212 205 205 200 201 203 204 202 198 197 198 187 190 204 200 187 178 176 176 177 179 175 172 158 154 149 155 170 169 151 172 178 175 182
276 281 283 276 273 277 275 269 269 265 261 259 258 258 255 247 234 237 232 226 221 213 216 216 220 220 219 214 216 214 212 212 206 202 200 198 195 195 195 193 176 181 181 185 183 178 171 174 174 173 161 158 155 155 157 159 150 149 159 163 165 151 110
269 268 274 272 275 274 269 261 261 275 288 297 295 287 274 243 242 243 238 231 229 224 219 217 215 220 219 219 218 213 212 215 212 202 197 190 193 192 197 176 174 182 175 175 174 168 160 150 138 139 136 135 125 109 100 117 136 149 148 155 160 165 167
276 273 272 270 271 274 277 266 250 259 292 301 299 295 290 270 259 253 250 245 233 228 216 210 213 213 217 214 211 209 213 217 217 207 186 187 192 194 175 154 171 174 165 140 120 115 117 118 112 110 106 104 104 101 90 98 115 135 148 146 151 151 180
308 339 339 341 336 323 300 272 250 259 266 277 285 289 288 284 269 258 242 245 225 208 201 201 208 199 216 217 213 212 216 221 225 202 174 181 185 174 170 158 154 142 120 117 126 122 117 120 118 112 111 106 104 98 91 90 87 77 68 61 114 160 176
330 335 340 338 333 319 303 283 260 253 247 268 291 296 292 282 275 265 250 211 196 197 195 185 187 200 207 208 205 210 215 219 221 190 161 175 180 172 162 144 138 125 129 129 132 134 131 128 128 123 120 122 104 77 84 82 67 61 67 70 60 49 43
311 320 329 337 328 328 306 289 259 268 277 279 291 303 295 288 279 272 199 197 190 178 164 160 169 174 194 198 203 206 212 212 214 148 164 167 169 166 151 127 128 134 135 136 134 136 136 132 129 121 126 127 100 103 84 81 63 59 56 59 51 47 75
315 319 327 327 325 312 312 331 312 284 283 292 301 306 301 294 287 265 179 144 104 124 135 153 161 179 193 198 199 202 203 214 161 156 164 164 164 149 116 131 134 136 137 141 142 140 134 127 122 117 110 106 99 103 93 88 56 57 56 50 52 46 99
319 326 333 324 311 314 326 322 309 310 301 283 296 303 298 293 246 133 129 114 129 133 147 158 165 174 184 182 186 172 118 104 146 151 157 155 131 110 129 126 132 135 140 138 136 133 133 126 110 102 105 115 120 112 116 113 103 94 47 30 30 70 346
324 332 331 321 321 321 310 297 302 307 308 310 319 307 318 85 99 110 112 111 125 134 140 152 151 158 147 142 128 118 131 134 138 136 124 107 119 126 126 137 144 150 141 137 130 122 111 115 111 112 114 124 121 113 114 118 132 134 138 108 162 99 71
321 328 321 312 308 306 309 304 293 313 324 322 329 2 84 95 96 96 111 113 108 108 118 121 131 125 90 90 84 83 71 83 92 111 119 116 112 117 119 121 110 90 97 95 105 102 110 107 122 122 123 118 109 117 123 136 140 146 150 159 144 73 89
322 318 310 298 298 302 295 309 302 304 322 306 326 118 127 117 114 113 105 124 117 94 83 85 88 93 96 91 98 90 91 92 93 82 97 109 110 110 114 114 122 125 118 126 123 131 134 134 123 124 122 120 111 118 134 155 122 123 130 126 70 120 144
331 329 322 312 300 267 264 275 279 292 305 309 312 142 124 122 126 131 128 120 108 102 96 94 95 101 108 110 103 103 103 104 101 100 91 88 102 101 103 103 103 112 125 125 128 130 130 135 135 131 136 125 123 122 136 178 159 151 140 113 126 121 156
344 347 347 351 330 296 295 287 294 303 316 312 160 139 131 132 136 136 131 119 105 84 94 105 101 96 99 102 108 110 114 113 112 111 109 104 101 94 107 110 113 119 120 121 123 128 130 139 139 138 136 137 141 148 159 154 101 112 107 124 138 122 146
351 352 347 347 351 357 305 340 342 337 322 318 150 138 137 138 138 133 129 119 105 99 94 101 106 106 106 110 109 112 112 114 114 118 121 120 112 106 105 118 122 130 124 127 129 132 139 139 136 134 136 137 145 146 151 148 138 134 133 103 104 139 150
351 350 347 350 352 9 21 12 1 337 337 126 144 138 140 137 133 130 122 106 93 107 105 102 105 107 109 113 116 116 112 110 114 117 116 117 119 121 115 108 117 123 123 132 139 135 137 135 128 131 133 143 149 147 147 151 156 162 138 133 127 140 160
343 344 348 354 2 16 27 32 29 39 24 135 138 137 129 120 115 106 92 98 113 110 111 109 111 110 113 112 111 115 116 117 116 115 115 110 107 110 113 118 123 125 130 129 131 128 127 129 136 144 143 145 143 141 135 148 160 149 136 150 164 175 211
332 337 344 360 6 15 30 37 36 24 52 132 125 118 114 109 96 86 80 72 73 96 114 121 121 124 123 126 125 129 131 129 128 126 125 125 124 122 124 128 127 124 125 123 120 125 137 146 149 152 150 148 148 146 150 158 154 161 158 162 173 175 203
335 331 328 1 11 8 25 37 38 42 117 126 119 117 108 99 100 99 99 99 95 102 102 107 119 124 124 122 122 124 125 129 131 129 128 134 135 137 136 130 128 128 125 129 132 139 140 136 137 144 142 134 136 152 156 160 161 167 172 170 174 173 182